When you browse on this site, cookies collect data to enhance your experience and personalize the content and advertising you see.
Visit our Privacy Policy to learn more. By continuing to use the site, you agree to this use of cookies and data.
  • In Denmark
  • List of Countries
  • For 7 days
  • Water Temperature
  • Satellite Maps
  • Weather Map
  • Weather Widgets
  • user-avatar
    Login

    Hourly Weather Akka

    Today, 11 December, Tuesday

    Time Temperature Precipitation Wind Pressure Humidity
    00:00 +15°C° 0.1 mm 7 mps 762 mmHg 68%
    01:00 +15°C° 0.1 mm 7 mps 762 mmHg 68%
    02:00 +15°C° 0.1 mm 7 mps 762 mmHg 68%
    03:00 +15°C° 0.1 mm 7 mps 762 mmHg 68%
    04:00 +15°C° 0.1 mm 7 mps 762 mmHg 69%
    05:00 +15°C° 0.1 mm 7 mps 762 mmHg 70%
    06:00 +15°C° 0.1 mm 7 mps 762 mmHg 70%
    07:00 +16°C° 0.1 mm 7 mps 762 mmHg 70%
    08:00 +16°C° 0.1 mm 8 mps 762 mmHg 71%
    09:00 +17°C° 0.2 mm 8 mps 762 mmHg 68%
    10:00 +18°C° 0.2 mm 9 mps 762 mmHg 65%
    11:00 +19°C° 0.2 mm 9 mps 762 mmHg 63%
    12:00 +19°C° 0.4 mm 9 mps 762 mmHg 64%
    13:00 +19°C° 0.4 mm 9 mps 762 mmHg 66%
    14:00 +19°C° 0.4 mm 9 mps 762 mmHg 68%
    15:00 +18°C° 0.4 mm 8 mps 762 mmHg 71%
    16:00 +18°C° 0.4 mm 8 mps 762 mmHg 74%
    17:00 +17°C° 0.4 mm 7 mps 762 mmHg 77%
    18:00 +17°C° 0.2 mm 7 mps 762 mmHg 77%
    19:00 +17°C° 0.2 mm 7 mps 762 mmHg 78%
    20:00 +16°C° 0.2 mm 7 mps 762 mmHg 78%
    21:00 +16°C° 0.2 mm 7 mps 762 mmHg 77%
    22:00 +16°C° 0.2 mm 7 mps 762 mmHg 76%
    23:00 +16°C° 0.2 mm 7 mps 762 mmHg 75%

    Tomorrow, 12 December, Wednesday

    Time Temperature Precipitation Wind Pressure Humidity
    00:00 +16°C° 0.2 mm 7 mps 762 mmHg 74%
    01:00 +16°C° 0.2 mm 7 mps 762 mmHg 74%
    02:00 +16°C° 0.2 mm 7 mps 762 mmHg 74%
    03:00 +16°C° 0.2 mm 7 mps 762 mmHg 76%
    04:00 +16°C° 0.2 mm 7 mps 762 mmHg 77%
    05:00 +16°C° 0.2 mm 8 mps 761 mmHg 79%
    06:00 +16°C° 0.3 mm 8 mps 762 mmHg 78%
    07:00 +16°C° 0.3 mm 9 mps 762 mmHg 77%
    08:00 +16°C° 0.3 mm 9 mps 762 mmHg 77%
    09:00 +17°C° 0.5 mm 10 mps 762 mmHg 75%
    10:00 +18°C° 0.5 mm 10 mps 762 mmHg 72%
    11:00 +18°C° 0.5 mm 10 mps 762 mmHg 70%
    12:00 +18°C° 0.8 mm 10 mps 762 mmHg 71%
    13:00 +18°C° 0.8 mm 10 mps 762 mmHg 72%
    14:00 +18°C° 0.8 mm 10 mps 761 mmHg 73%
    15:00 +18°C° 1 mm 9 mps 762 mmHg 76%
    16:00 +18°C° 1 mm 8 mps 762 mmHg 78%
    17:00 +17°C° 1 mm 7 mps 762 mmHg 81%
    18:00 +17°C° 0.4 mm 7 mps 762 mmHg 80%
    19:00 +17°C° 0.4 mm 6 mps 763 mmHg 80%
    20:00 +17°C° 0.4 mm 6 mps 763 mmHg 79%
    21:00 +16°C° 0.1 mm 6 mps 764 mmHg 78%
    22:00 +16°C° 0.1 mm 6 mps 764 mmHg 77%
    23:00 +16°C° 0.1 mm 6 mps 764 mmHg 76%

    Day after tomorrow, 13 December, Thursday

    Time Temperature Precipitation Wind Pressure Humidity
    00:00 +16°C° 0 mm 6 mps 764 mmHg 76%
    01:00 +16°C° 0 mm 6 mps 764 mmHg 76%
    02:00 +15°C° 0 mm 6 mps 764 mmHg 75%
    03:00 +15°C° 0 mm 5 mps 765 mmHg 75%
    04:00 +15°C° 0 mm 5 mps 765 mmHg 75%
    05:00 +15°C° 0 mm 5 mps 765 mmHg 74%
    06:00 +15°C° 0 mm 5 mps 765 mmHg 73%
    07:00 +15°C° 0 mm 5 mps 766 mmHg 71%
    08:00 +15°C° 0 mm 4 mps 766 mmHg 69%
    09:00 +17°C° 0 mm 4 mps 766 mmHg 67%
    10:00 +17°C° 0 mm 4 mps 767 mmHg 65%
    11:00 +17°C° 0 mm 4 mps 767 mmHg 62%
    12:00 +17°C° 0 mm 4 mps 767 mmHg 62%
    13:00 +17°C° 0 mm 3 mps 766 mmHg 62%
    14:00 +17°C° 0 mm 3 mps 766 mmHg 61%
    15:00 +17°C° 0 mm 3 mps 766 mmHg 64%
    16:00 +16°C° 0 mm 2 mps 766 mmHg 67%
    17:00 +16°C° 0 mm 1 mps 766 mmHg 69%
    18:00 +15°C° 0 mm 1 mps 767 mmHg 70%
    19:00 +15°C° 0 mm 1 mps 767 mmHg 72%
    20:00 +15°C° 0 mm 1 mps 767 mmHg 73%
    21:00 +14°C° 0 mm 1 mps 767 mmHg 73%
    22:00 +14°C° 0 mm 1 mps 767 mmHg 74%
    23:00 +14°C° 0 mm 1 mps 767 mmHg 74%

    14 December, Friday

    Time Temperature Precipitation Wind Pressure Humidity
    00:00 +14°C° 0 mm 1 mps 767 mmHg 74%
    01:00 +14°C° 0 mm 1 mps 767 mmHg 74%
    02:00 +13°C° 0 mm 1 mps 767 mmHg 74%
    03:00 +13°C° 0 mm 1 mps 767 mmHg 74%
    04:00 +13°C° 0 mm 1 mps 767 mmHg 74%
    05:00 +13°C° 0 mm 1 mps 767 mmHg 74%
    06:00 +14°C° 0 mm 2 mps 767 mmHg 71%
    07:00 +14°C° 0 mm 2 mps 768 mmHg 69%
    08:00 +15°C° 0 mm 2 mps 768 mmHg 67%
    09:00 +16°C° 0 mm 2 mps 768 mmHg 60%
    10:00 +18°C° 0 mm 2 mps 767 mmHg 54%
    11:00 +19°C° 0 mm 2 mps 767 mmHg 47%
    12:00 +19°C° 0 mm 2 mps 767 mmHg 45%
    13:00 +20°C° 0 mm 2 mps 766 mmHg 43%
    14:00 +20°C° 0 mm 2 mps 766 mmHg 41%
    15:00 +19°C° 0 mm 2 mps 766 mmHg 45%
    16:00 +18°C° 0 mm 3 mps 766 mmHg 50%
    17:00 +17°C° 0 mm 4 mps 766 mmHg 55%
    18:00 +17°C° 0 mm 4 mps 766 mmHg 56%
    19:00 +17°C° 0 mm 4 mps 767 mmHg 58%
    20:00 +15°C° 0 mm 4 mps 767 mmHg 59%
    21:00 +15°C° 0 mm 4 mps 767 mmHg 58%
    22:00 +15°C° 0 mm 4 mps 767 mmHg 57%
    23:00 +15°C° 0 mm 4 mps 767 mmHg 56%

    15 December, Saturday

    Time Temperature Precipitation Wind Pressure Humidity
    00:00 +14°C° 0 mm 4 mps 766 mmHg 56%
    01:00 +14°C° 0 mm 4 mps 766 mmHg 56%
    02:00 +14°C° 0 mm 4 mps 766 mmHg 56%
    03:00 +14°C° 0 mm 4 mps 766 mmHg 57%
    04:00 +14°C° 0 mm 4 mps 765 mmHg 59%
    05:00 +14°C° 0 mm 4 mps 765 mmHg 60%
    06:00 +14°C° 0 mm 4 mps 765 mmHg 59%
    07:00 +15°C° 0 mm 5 mps 766 mmHg 59%
    08:00 +15°C° 0 mm 5 mps 766 mmHg 59%
    09:00 +17°C° 0 mm 5 mps 766 mmHg 55%
    10:00 +20°C° 0 mm 6 mps 765 mmHg 51%
    11:00 +21°C° 0 mm 6 mps 765 mmHg 47%
    12:00 +22°C° 0 mm 6 mps 764 mmHg 45%
    13:00 +23°C° 0 mm 6 mps 764 mmHg 43%
    14:00 +23°C° 0 mm 5 mps 763 mmHg 42%
    15:00 +22°C° 0 mm 5 mps 763 mmHg 45%
    16:00 +21°C° 0 mm 5 mps 763 mmHg 48%
    17:00 +20°C° 0 mm 5 mps 763 mmHg 51%
    18:00 +19°C° 0 mm 5 mps 763 mmHg 52%
    19:00 +19°C° 0 mm 6 mps 763 mmHg 52%
    20:00 +19°C° 0 mm 6 mps 763 mmHg 53%
    21:00 +17°C° 0 mm 7 mps 763 mmHg 54%
    22:00 +17°C° 0 mm 7 mps 763 mmHg 55%
    23:00 +17°C° 0 mm 7 mps 763 mmHg 55%

    16 December, Sunday

    Time Temperature Precipitation Wind Pressure Humidity
    00:00 +17°C° 0 mm 8 mps 762 mmHg 56%
    01:00 +16°C° 0 mm 8 mps 762 mmHg 57%
    02:00 +16°C° 0 mm 8 mps 762 mmHg 58%
    03:00 +16°C° 0 mm 8 mps 762 mmHg 59%
    04:00 +16°C° 0 mm 8 mps 761 mmHg 60%
    05:00 +15°C° 0 mm 8 mps 761 mmHg 61%
    06:00 +16°C° 0 mm 8 mps 761 mmHg 60%
    07:00 +16°C° 0 mm 7 mps 762 mmHg 60%
    08:00 +16°C° 0 mm 7 mps 762 mmHg 60%
    09:00 +18°C° 0 mm 7 mps 762 mmHg 55%
    10:00 +20°C° 0 mm 6 mps 761 mmHg 50%
    11:00 +22°C° 0 mm 6 mps 761 mmHg 46%
    12:00 +22°C° 0 mm 5 mps 761 mmHg 45%
    13:00 +23°C° 0 mm 4 mps 761 mmHg 43%
    14:00 +23°C° 0 mm 4 mps 760 mmHg 42%
    15:00 +22°C° 0 mm 3 mps 761 mmHg 47%
    16:00 +21°C° 0 mm 3 mps 761 mmHg 51%
    17:00 +19°C° 0 mm 3 mps 761 mmHg 56%
    18:00 +19°C° 0 mm 3 mps 761 mmHg 59%
    19:00 +18°C° 0 mm 3 mps 761 mmHg 62%
    20:00 +18°C° 0 mm 3 mps 762 mmHg 64%
    21:00 +17°C° 0 mm 3 mps 762 mmHg 65%
    22:00 +17°C° 0 mm 3 mps 762 mmHg 66%
    23:00 +17°C° 0 mm 2 mps 762 mmHg 67%
    Show more